This demonstration page uses our WeatherBlox Daily Observations layout. Learn more.

Left ArrowRight Arrow

31.84235, -102.49876

Hourly Observations for July 16, 2022

Temp ( °F °C ) Dew Point ( °F °C ) Humidity (%) Winds ( mph kmh ) Pressure ( in mb ) Visibility ( mi km ) Precip ( " mm )
12:53 am 00:53 Clear 83 28.3 53 11.7 36 36 SSE 6 9 29.94 1014 10 16 0.00 0.00
1:53 am 01:53 Clear 80 26.7 54 12.2 41 41 ESE 8 13 29.94 1014 10 16 0.00 0.00
2:53 am 02:53 Clear 79 26.1 54 12.2 42 42 SE 7 11 29.93 1014 10 16 0.00 0.00
3:53 am 03:53 Clear 77 25 55 12.8 47 47 SSE 7 11 29.92 1013 10 16 0.00 0.00
4:53 am 04:53 Clear 76 24.4 56 13.3 50 50 S 8 13 29.92 1013 10 16 0.00 0.00
5:53 am 05:53 Clear 77 25 60 15.6 56 56 S 12 19 29.93 1013 10 16 0.00 0.00
6:53 am 06:53 Clear 76 24.4 61 16.1 60 60 SSW 9 15 29.96 1014 10 16 0.00 0.00
7:53 am 07:53 Sunny 77 25 63 17.2 62 62 SSW 12 19 29.96 1015 10 16 0.00 0.00
8:53 am 08:53 Sunny 81 27.2 63 17.2 54 54 SSW 13 20 29.96 1014 10 16 0.00 0.00
9:53 am 09:53 Sunny 85 29.4 62 16.7 46 46 SSW 14 22 29.96 1015 10 16 0.00 0.00
10:53 am 10:53 Sunny 88 31.1 60 15.6 39 39 SSW 12 19 29.96 1015 10 16 0.00 0.00
11:53 am 11:53 Sunny 89 31.7 56 13.3 33 33 VRB 5 7 29.96 1015 10 16 0.00 0.00
12:53 pm 12:53 Sunny 92 33.3 55 12.8 29 29 VRB 6 9 29.95 1014 10 16 0.00 0.00
1:53 pm 13:53 Sunny 94 34.4 54 12.2 26 26 SSW 10 17 29.92 1013 10 16 0.00 0.00
3:53 pm 15:53 Sunny 96 35.6 52 11.1 23 23 S 13 20 29.88 1012 10 16 0.00 0.00
4:53 pm 16:53 Sunny 97 36.1 50 10 20 20 SSE 12 19 29.86 1011 10 16 0.00 0.00
5:53 pm 17:53 Sunny 96 35.6 50 10 21 21 undefined N/A 29.85 1011 10 16 0.00 0.00
6:53 pm 18:53 Sunny 95 35 51 10.6 23 23 S 8 13 29.83 1010 10 16 0.00 0.00
7:53 pm 19:53 Sunny 95 35 50 10 22 22 SE 13 20 29.82 1010 10 16 0.00 0.00
8:53 pm 20:53 Sunny 92 33.3 50 10 24 24 SE 8 13 29.83 1010 10 16 0.00 0.00
9:53 pm 21:53 Clear 89 31.7 51 10.6 27 27 SE 8 13 29.84 1010 10 16 0.00 0.00
10:53 pm 22:53 Clear 87 30.6 51 10.6 29 29 SSE 7 11 29.85 1011 10 16 0.00 0.00
11:53 pm 23:53 Clear 87 30.6 52 11.1 30 30 S 9 15 29.86 1011 10 16 0.00 0.00

Powered by AerisWeather